カタログに戻る

STARLINK-36097

運用中通信VLEO
NORAD 67091·PAYLOAD·🇺🇸 United States

打ち上げ Dec 14, 2025 から Vandenberg Space Force Base

Loading…

次のパス (今後24時間)

TLE

最新Source: CelesTrak SupGP

元期: Sep 15, 2026, 03:06 UTC

1 67091C 25298S   26258.12965278  .00023931  00000+0  30561-3 0  2585
2 67091  69.9830 224.2937 0007402 206.0442  55.1071 15.59029733    14

AllMySatでSTARLINK-36097をリアルタイム追跡

Download on the App Store